Regional Weather Roundup
Issued by NWS

Home | Current Version | Previous Version | Text Only | Print | Product List | Glossary Off
Versions: 1 2 3 4 5 6 7 8 9 10 11 12 13 14 15 16 17 18 19 20 21 22 23 24 25 26 27 28 29 30 31 32 33 34 35 36 37 38 39 40 41 42 43 44 45 46 47 48 49 50

000
ASUS43 KDTX 130310
RWRMI
MICHIGAN HOURLY REGIONAL WEATHER ROUNDUP
NATIONAL WEATHER SERVICE DETROIT/PONTIAC MI
1000 PM EST FRI FEB 12 2016

NOTE: "FAIR" INDICATES FEW OR NO CLOUDS BELOW 12,000 FEET WITH NO
SIGNIFICANT WEATHER AND/OR OBSTRUCTION TO VISIBILITY.

MIZ047>049-052>055-059>063-066>070-074>076-081>083-130400-
SOUTHEAST LOWER MICHIGAN

CITY           SKY/WX    TMP DP  RH WIND       PRES   REMARKS
ADRIAN         LGT SNOW  13   8  81 N13       30.17R VSB 3/4 WCI  -2
ALMA           CLEAR      8  -5  55 NW13G25   30.23R WCI  -8
ANN ARBOR      LGT SNOW  11   2  67 N20       30.16R WCI  -7
BAD AXE        PTCLDY     6  -5  61 NW20G28   30.15R HAZE    WCI -14
CARO           PTCLDY     7  -2  66 NW16G22   30.16R WCI -11
DETROIT CITY   CLEAR     12  -3  51 NW14G25   30.15R WCI  -3
DETROIT        PTCLDY    12  -3  51 NW22      30.16R WCI  -7
FLINT          PTCLDY    10  -5  50 NW17      30.18R WCI  -8
GROSSE ILE     PTCLDY    12  -2  52 NW20G29   30.15R WCI  -6
HILLSDALE      MOCLDY    11   3  70 NW14      30.15R WCI  -4
HOWELL         PTCLDY     9  -1  63 NW10      30.17R WCI  -5

CITY           SKY/WX    TMP DP  RH WIND       PRES   REMARKS
JACKSON        MOCLDY    10   1  67 N14G22    30.18R WCI  -6
LAMBERTVILLE   CLEAR     14   8  75 NW10G18   30.17R WCI   1
LANSING        CLOUDY     8  -5  55 N14G25    30.22R WCI  -8
LAPEER         FAIR       8  -3  63 NW12G18   30.15R WCI  -8
MASON          PTCLDY     9  -2  63 NW17G23   30.19R WCI -10
MONROE         MOCLDY    14   4  64 NW14G20   30.15R WCI  -1
MT. CLEMENS    PTCLDY    10  -2  56 NW20G26   30.14R WCI  -8
PONTIAC        MOCLDY     8  -5  55 NW18      30.13R WCI -11
PORT HOPE        N/A      8  -3  61 NW28G44   30.11R WCI -14
PORT HURON     CLEAR      9  -2  61 NW12G20   30.14R WCI  -6
TRI CITIES     PTCLDY     8  -5  55 NW15      30.21R WCI  -9
MIDLAND        CLOUDY     7  -3  64 NW12G21   30.20R WCI  -8
TROY           CLEAR     12  -3  50 NW9G24    30.17R WCI  -1
SAGINAW HB     PTCLDY     9  -4  56 NW16G22   30.20R WCI  -9
$$
MIZ043>046-050>051-056>058-064>065-071>073-077>080-130400-
SOUTHWEST LOWER MICHIGAN

CITY           SKY/WX    TMP DP  RH WIND       PRES   REMARKS
BATTLE CREEK   PTCLDY    11  -1  58 N16G28    30.21R WCI  -6
BENTON HARBOR  CLOUDY    17   5  59 NW16G29   30.29R HAZE    WCI   2
BIG RAPIDS     CLEAR      5  -5  62 NW13G22   30.22R WCI -12
COLDWATER      PTCLDY    12   4  70 NW14      30.20R WCI  -3
FREMONT        LGT SNOW   7   1  77 N20G28    30.27R WCI -13
HOLLAND        LGT SNOW  11   3  70 N13G22    30.28R WCI  -4
GRAND RAPIDS   FLURRIES  10   2  69 NW17G29   30.25R WCI  -8
IONIA          MOCLDY     8  -6  52 NW15G29   30.22R WCI  -9
KALAMAZOO      CLOUDY    11   4  73 N17       30.23R WCI  -6
LUDINGTON      LGT SNOW   8  -2  66 NW15G25   30.32R WCI -10
MARSHALL       LGT SNOW  12   6  76 N10G16    30.20R WCI  -1
MOUNT PLEASANT CLEAR      8  -6  54 NW10G18   30.21R WCI  -7
MUSKEGON       FLURRIES  10   0  63 N16G26    30.31R WCI  -7
SOUTH HAVEN    LGT SNOW  16   7  69 N21G29    30.27R WCI  -2
$$
MIZ016>042-130400-
NORTHERN LOWER MICHIGAN

CITY           SKY/WX    TMP DP  RH WIND       PRES   REMARKS
ALPENA         LGT SNOW   3  -4  72 NW15G23   30.16R VSB 3/4 WCI -16
BEAVER ISLAND  CLOUDY     7  -1  71 NW14G23   30.23R HAZE    WCI -10
BELLAIRE       LGT SNOW   7   2  80 NW10G20   30.23S WCI  -8
CADILLAC       CLOUDY     3  -4  73 NW12G21   30.17R WCI -14
CHARLEVOIX     CLOUDY     9  -4  57 NW24G32   30.24R WCI -12
FRANKFORT      CLOUDY     8  -3  61 NW12G20   30.30R WCI  -7
GAYLORD        LGT SNOW   3  -2  79 N7        30.11R VSB 3/4 WCI  -9
GRAYLING       PTCLDY     2  -4  73 NW9G16    30.15R WCI -12
HARBOR SPRINGS LGT SNOW   4  -2  77 N8        30.21R WCI  -9
HOUGHTON LAKE  FLURRIES   3  -5  69 NW13G21   30.15R WCI -14
MANISTEE       CLOUDY     9  -2  61 NW14G23   30.30R WCI  -8
OSCODA         CLEAR      3  -9  57 NW14G20   30.16R WCI -15
PELLSTON       MOCLDY     1  -7  68 N18G25    30.22R BLWGSNOWWCI -20
ROGERS CITY    CLOUDY     3  -4  73 N21G29    30.18R HAZE    WCI -19
TRAVERSE CITY  SNOW       7   3  84 NW17G25   30.25R VSB 1/2 WCI -12
$$
MIZ007>008-015-130400-
EASTERN UPPER MICHIGAN

CITY           SKY/WX    TMP DP  RH WIND       PRES   REMARKS
KINROSS        PTCLDY    -9 -20  59 NE10G16   30.23R WCI -28
MACKINAC ISLAN CLOUDY    -3  -8  79 N16G25    30.21R HAZE    WCI -24
NEWBERRY       LGT SNOW   1  -2  85 N12       30.20R WCI -15
S. S. MARIE    CLEAR    -10 -25  47 N12G23    30.24R WCI -30
MUNISING         N/A      7   2  80 N21G35    30.25S WCI -13
$$
MIZ004>006-011>014-085-130400-
CENTRAL UPPER MICHIGAN

CITY           SKY/WX    TMP DP  RH WIND       PRES   REMARKS
MANISTIQUE     LGT SNOW   2  -3  82 W8        30.24R WCI -12
ESCANABA       CLEAR      0 -15  50 W13       30.31R WCI -18
MENOMINEE      CLEAR      0 -11  60 NW5       30.37R WCI -10
SAWYER-GWINN   LGT SNOW   0  -6  78 NW17      30.23S WCI -21
$$
MIZ001>003-009>011-084-130400-
WESTERN UPPER MICHIGAN

CITY           SKY/WX    TMP DP  RH WIND       PRES   REMARKS
IRON MOUNTAIN  CLEAR     -4 -11  72 W5        30.29R WCI -15
HOUGHTON       LGT SNOW   2  -5  72 NW20G30   30.30S VSB 3/4 WCI -19
COPPER HARBOR    N/A      6   0  76 N26G35    30.32R WCI -16
IRONWOOD       CLOUDY     1  -2  85 NW13G18   30.36R WCI -16
$$

ABBREVIATIONS USED IN REMARKS
   TC - TEMPERATURE IN CELSIUS
  WCI - WIND CHILL INDEX
   HX - HEAT INDEX
  VSB - VISIBILITY




USA.gov is the U.S. government's official web portal to all federal, state and local government web resources and services.